Regional Weather Roundup
Issued by NWS

Home | Current Version | Previous Version | Text Only | Print | Product List | Glossary On
Versions: 1 2 3 4 5 6 7 8 9 10 11 12 13 14 15 16 17 18 19 20 21 22 23 24 25 26 27 28 29 30 31 32 33 34 35 36 37 38 39 40 41 42 43 44 45 46 47 48 49 50
000
ASUS43 KMKX 300020
RWRWI

WISCONSIN REGIONAL WEATHER ROUNDUP
NATIONAL WEATHER SERVICE MILWAUKEE/SULLIVAN WI
700 PM CDT SUN MAR 29 2015

NOTE: "FAIR" INDICATES FEW OR NO CLOUDS BELOW 12,000 FEET WITH NO
SIGNIFICANT WEATHER AND/OR OBSTRUCTIONS TO VISIBILITY.

WIZ001-002-006>008-014>016-023>028-300100-
NORTHWEST WISCONSIN

CITY           SKY/WX    TMP DP  RH WIND       PRES   REMARKS
SUPERIOR ARPT  PTCLDY    45  28  52 NW10      29.77R
6HR MIN TEMP:  37; 6HR MAX TEMP:  47;

ASHLAND        CLOUDY    42  32  67 NW9G29    29.74R
6HR MIN TEMP:  33; 6HR MAX TEMP:  43; 6HR PCP:  0.09;

HAYWARD        PTCLDY    44  28  53 NW12G25   29.75R
6HR MIN TEMP:  33; 6HR MAX TEMP:  44; 6HR PCP:  0.11;

SIREN          PTCLDY    48  25  40 NW16G28   29.80R
6HR MIN TEMP:  35; 6HR MAX TEMP:  50; 6HR PCP:  0.01;

CUMBERLAND     CLEAR     45  27  49 NW16G25   29.77R
RICE LAKE      CLEAR     46  26  46 NW10G18   29.79R
6HR MIN TEMP:  34; 6HR MAX TEMP:  47; 6HR PCP:  0.03;

CHETEK         CLEAR     46  29  52 NW9G21    29.77R
6HR MIN TEMP:  34; 6HR MAX TEMP:  46; 6HR PCP:  0.03;

LADYSMITH      CLEAR     41  32  70 NW14      29.76R
6HR MIN TEMP:  34; 6HR MAX TEMP:  42; 6HR PCP:  0.04;

EAU CLAIRE     CLEAR     48  28  46 NW15G23   29.77R
6HR MIN TEMP:  39; 6HR MAX TEMP:  49; 6HR PCP:  0.04;

MENOMONIE      CLEAR     49  25  39 W20G28    29.80R
6HR MIN TEMP:  40; 6HR MAX TEMP:  52; 6HR PCP:  0.02;

NEW RICHMOND   CLEAR     47  26  43 NW20G25   29.82R
6HR MIN TEMP:  38; 6HR MAX TEMP:  52; 6HR PCP:  0.05;

OSCEOLA        CLEAR     49  26  41 NW14G20   29.85R
6HR MIN TEMP:  38; 6HR MAX TEMP:  54; 6HR PCP:  0.01;

$$

WIZ003>005-009-010-017-018-300100-
NORTH CENTRAL WISCONSIN

CITY           SKY/WX    TMP DP  RH WIND       PRES   REMARKS
MANITOWISH WTR CLOUDY    35  33  92 NW16      29.66R WCI  25
6HR MIN TEMP:  32; 6HR MAX TEMP:  35; 6HR PCP:  0.08;

ARBOR VITAE    CLOUDY    37  33  87 NW12G22   29.66R WCI  29
6HR MIN TEMP:  34; 6HR MAX TEMP:  37; 6HR PCP:  0.06;

WOODRUFF       CLOUDY    37  33  87 NW12G22   29.66R WCI  29
6HR MIN TEMP:  34; 6HR MAX TEMP:  37; 6HR PCP:  0.06;

RHINELANDER    CLOUDY    36  31  82 NW18G26   29.66R WCI  26
6HR MIN TEMP:  32; 6HR MAX TEMP:  37; 6HR PCP:  0.03;

EAGLE RIVER    CLOUDY    35  30  82 NW18G28   29.62R WCI  25
6HR MIN TEMP:  32; 6HR MAX TEMP:  35; 6HR PCP:  0.03;

LAND O LAKES   CLOUDY    35  32  87 NW14G26   29.62R WCI  26
6HR MIN TEMP:  32; 6HR MAX TEMP:  36; 6HR PCP:  0.13;

PHILLIPS       CLOUDY    37  32  82 W6        29.71R WCI  32
6HR MIN TEMP:  32; 6HR MAX TEMP:  37; 6HR PCP:  0.02;

TOMAHAWK       CLOUDY    36  32  87 NW12G24   29.69R WCI  27
6HR MIN TEMP:  32; 6HR MAX TEMP:  36;

MEDFORD        CLOUDY    37  31  81 NW9       29.72R WCI  30
6HR MIN TEMP:  32; 6HR MAX TEMP:  37; 6HR PCP:  0.03;

MERRILL        CLOUDY    38  33  83 NW15G24   29.69R WCI  29
6HR MIN TEMP:  32; 6HR MAX TEMP:  38; 6HR PCP:  0.03;

$$

WIZ029-030-035-036-043>047-300100-
CENTRAL WISCONSIN

CITY           SKY/WX    TMP DP  RH WIND       PRES   REMARKS
WAUSAU         CLOUDY    39  32  76 NW17G28   29.69R WCI  30
6HR MIN TEMP:  33; 6HR MAX TEMP:  39; 6HR PCP:  0.03;

MOSINEE        CLOUDY    37  34  87 NW9G28    29.71R WCI  31
MARSHFIELD     CLOUDY    40  33  76 NW22G28   29.74R WCI  30
6HR MIN TEMP:  35; 6HR MAX TEMP:  41; 6HR PCP:  0.01;

STEVENS POINT  CLOUDY    39  31  75 W15       29.72R WCI  30
6HR MIN TEMP:  32; 6HR MAX TEMP:  39;

WAUPACA        CLOUDY    43  34  71 W14G22    29.72R
6HR MIN TEMP:  35; 6HR MAX TEMP:  43;

WAUTOMA        CLOUDY    42  35  76 NW17G29   29.74R
6HR MIN TEMP:  34; 6HR MAX TEMP:  43; 6HR PCP:  0.02;

WISC RAPIDS    CLOUDY    41  32  70 NW21G40   29.75R
6HR MIN TEMP:  34; 6HR MAX TEMP:  42; 6HR PCP:  0.01;

CAMP DOUGLAS   PTCLDY    44  41  89 NW6       29.76R
6HR MIN TEMP:  38; 6HR MAX TEMP:  45; 6HR PCP:  0.01;

$$

WIZ011>013-019>022-031-037>040-048>050-300100-
NORTHEAST WISCONSIN

CITY           SKY/WX    TMP DP  RH WIND       PRES   REMARKS
ANTIGO         CLOUDY    35  32  88 W17G25    29.64R WCI  25
6HR MIN TEMP:  31; 6HR MAX TEMP:  35; 6HR PCP:  0.01;

SHAWANO        CLOUDY    41  34  77 W12G20    29.67R
6HR MIN TEMP:  34; 6HR MAX TEMP:  41;

OCONTO         CLOUDY    38  34  85 W14G20    29.60R WCI  30
6HR MIN TEMP:  32; 6HR MAX TEMP:  38;

STURGEON BAY   CLOUDY    37  32  81 W15G22    29.61R WCI  28
6HR MIN TEMP:  32; 6HR MAX TEMP:  37;

GREEN BAY      CLOUDY    40  34  79 W18G30    29.64R WCI  31
6HR MIN TEMP:  34; 6HR MAX TEMP:  41; 6HR PCP:  0.01;

MANITOWOC      CLOUDY    41  36  81 NW22G30   29.63R
6HR MIN TEMP:  33; 6HR MAX TEMP:  41;

APPLETON       CLOUDY    39  32  75 W21G30    29.67R WCI  29
CLINTONVILLE   CLOUDY    39  32  75 NW13G20   29.68R WCI  32
OSHKOSH        CLOUDY    41  33  73 W18G29    29.70R
6HR MIN TEMP:  33; 6HR MAX TEMP:  42; 6HR PCP: TRACE;

$$

WIZ032>034-041-042-053>061-300100-
SOUTHWEST WISCONSIN

CITY           SKY/WX    TMP DP  RH WIND       PRES   REMARKS
LA CROSSE      PTCLDY    52  29  41 NW24      29.78R
6HR MIN TEMP:  44; 6HR MAX TEMP:  53; 6HR PCP: TRACE;

SPARTA         PTCLDY    45  36  70 W6        29.78R
6HR MIN TEMP:  40; 6HR MAX TEMP:  46;

VIROQUA        MOCLDY    45  33  63 W14G20    29.78R
6HR MIN TEMP:  38; 6HR MAX TEMP:  46;

BOSCOBEL       PTCLDY    48  35  60 W9        29.81R
6HR MIN TEMP:  40; 6HR MAX TEMP:  50; 6HR PCP: TRACE;

PRAIRIE DU CHI CLEAR     46  32  57 W13G18    29.83R
6HR MIN TEMP:  43; 6HR MAX TEMP:  51;

PLATTEVILLE    CLEAR     45  37  72 W9        29.83R
6HR MIN TEMP:  36; 6HR MAX TEMP:  48;

$$

WIZ056-057-062-063-064-067-068-300100-
SOUTH CENTRAL WISCONSIN

CITY           SKY/WX    TMP DP  RH WIND       PRES   REMARKS
REEDSBURG      MOCLDY    43  36  75 W10       29.77R
6HR MIN TEMP:  35; 6HR MAX TEMP:  44; 6HR PCP:  0.01;

BARABOO/DELLS  CLOUDY    43  34  71 W12       29.77R
6HR MIN TEMP:  34; 6HR MAX TEMP:  44;

LONE ROCK      PTCLDY    47  35  63 W13       29.79R
6HR MIN TEMP:  36; 6HR MAX TEMP:  48;

MINERAL POINT  PTCLDY    43  34  70 W15       29.80S
MADISON        MOCLDY    43  37  79 W10       29.77R
6HR MIN TEMP:  34; 6HR MAX TEMP:  46; 6HR PCP:  0.01;

MIDDLETON      PTCLDY    44  35  69 W10       29.79R
6HR MIN TEMP:  35; 6HR MAX TEMP:  47;

WATERTOWN      CLOUDY    42  36  79 W15G25    29.76R
6HR MIN TEMP:  32; 6HR MAX TEMP:  44;

MONROE         CLOUDY    43  36  75 W14G21    29.81R
JANESVILLE     CLOUDY    45  36  70 W15       29.79R
$$

WIZ051-052-058>065-066-070>072-300100-
SOUTHEAST WISCONSIN

CITY           SKY/WX    TMP DP  RH WIND       PRES   REMARKS
MILWAUKEE      LGT RAIN  46  35  65 W21G35    29.73R
6HR MIN TEMP:  34; 6HR MAX TEMP:  45; 6HR PCP: TRACE;

WAUKESHA         N/A     43  34  70 W35G44    29.73R
MILWAUKEE/TIMM CLOUDY    41  36  81 W26G39    29.72R
RACINE         CLOUDY    46  36  68 W21G38    29.75R
6HR MIN TEMP:  35; 6HR MAX TEMP:  46; 6HR PCP: TRACE;

BURLINGTON     CLOUDY    43  35  74 NW23G33   29.76R
6HR MIN TEMP:  31; 6HR MAX TEMP:  43;

KENOSHA        CLOUDY    44  39  82 W20G30    29.74R
6HR MIN TEMP:  34; 6HR MAX TEMP:  44; 6HR PCP: TRACE;

FOND DU LAC    CLOUDY    42  34  73 W16G26    29.71R
6HR MIN TEMP:  33; 6HR MAX TEMP:  42; 6HR PCP:  0.01;

SHEBOYGAN      CLOUDY    41  33  73 W16G28    29.68R
6HR MIN TEMP:  33; 6HR MAX TEMP:  41; 6HR PCP:  0.01;

WEST BEND      CLOUDY    41  34  75 W21G26    29.70R
JUNEAU         CLOUDY    41  35  77 W10G22    29.75R
6HR MIN TEMP:  32; 6HR MAX TEMP:  42;

$$

LSZ147-162-300100-
LAKE SUPERIOR

STATION/POSITION TIME  TEMP    WIND        PRES    WAVE
                       AIR SEA DIR/SP/G            HT/PER
                 (UTC) (F)     (DEG/KT/KT) (MB)    (FT/S)
DEVILS ISLAND    0000   39     300/ 22/ 24 1006.7R
PORT WING        2340   40     290/ 12/ 15 1007.8R
SAXON HARBOR     2300   41     290/  9/ 16 1005.1R
$$

LMZ867-665-643>646-300100-
LAKE MICHIGAN

STATION/POSITION TIME  TEMP    WIND        PRES    WAVE


USA.gov is the U.S. government's official web portal to all federal, state and local government web resources and services.